Погода в Протасове

Россия / Орловская область     53°04′15″N   36°29′35″E
темп.,
°C
ветер,
м/с
пор.,
м/с
влажн.,
%
обл.,
%
осадки,
мм/ч
давл.,
гПа
погр.,
м
28 сентября, вт
вт2800:00+7с5992100 0.0 1023468
03:00+8с5893100 0.1 1023533
06:00+8ссв4893100 0.2 1024445
09:00+8св5888100 0.4 1025654
12:00+7св478393 0.2 1027774
15:00+7св5681100 0.3 1029991
18:00+7св5882100 0.1 1030644
21:00+6всв5982100 0.1 1032661
29 сентября, ср
ср2900:00+5всв4882100 0.0 1033501
03:00+5св488432 0.0 1034404
06:00+2св37885 0.0 1035160
09:00+5св46745 0.0 1035328
12:00+9св455410 0.0 10351022
15:00+11св34495 0.0 10331163
18:00+8св33635 0.0 103445
21:00+6св226734 0.0 103422
30 сентября, чт
чт3000:00+5св117199 0.0 103510
03:00+4с227544 0.0 103510
06:00+4ссв22835 0.0 103527
09:00+7св34745 0.0 1035233
12:00+11всв346099 0.0 10351192
15:00+10всв2358100 0.0 10351252
18:00+10всв236098 0.0 103459
21:00+7в22753 0.0 103523
1 октября, пт
пт100:00+6в22761 0.0 103612
03:00+5в11790 0.0 103610
06:00+5в11825 0.0 103610
09:00+8вюв11710 0.0 1037168
12:00+12ююв225723 0.0 1036747
15:00+13ю22514 0.0 10351027
18:00+10ююв11635 0.0 103510
21:00+9ююв22703 0.0 103511
2 октября, сб
сб200:00+8ю22755 0.0 103513
03:00+7ю22795 0.0 103510
06:00+6ю118173 0.0 103510
09:00+9ююв1272100 0.0 103589
12:00+11ююв2265100 0.0 1035279
15:00+12юв2261100 0.0 1034471
18:00+10юв2271100 0.0 103329
21:00+10юв2374100 0.0 103374